This is the latest recevied weather packets stored in our database for station/object KK4WXG. If no packets are shown the sender has not sent any weather packets the latest 10 day(s).
| Time | Temp. | Humidity | Pressure | Rain* | Wind** | Luminosity | Snow |
|---|---|---|---|---|---|---|---|
| 1777670355 | 18.33° C | 37% | 1009.2 hPa | 0 mm | - | 147 W/m² | - |
| 1777670052 | 18.89° C | 35% | 1009.1 hPa | 0 mm | - | 258 W/m² | - |
| 1777669750 | 18.89° C | 35% | 1009.3 hPa | 0 mm | - | 533 W/m² | - |
| 1777669446 | 19.44° C | 34% | 1009.1 hPa | 0 mm | - | 372 W/m² | - |
| 1777669143 | 19.44° C | 35% | 1009.1 hPa | 0 mm | - | 518 W/m² | - |
| 1777668840 | 18.89° C | 35% | 1009.3 hPa | 0 mm | - | 534 W/m² | - |
| 1777668536 | 18.89° C | 36% | 1009.3 hPa | 0 mm | - | 551 W/m² | - |
| 1777668233 | 18.89° C | 37% | 1009.4 hPa | 0 mm | - | 572 W/m² | - |
| 1777667929 | 19.44° C | 36% | 1009.3 hPa | 0 mm | - | 591 W/m² | - |
| 1777667626 | 18.89° C | 35% | 1009.7 hPa | 0 mm | - | 613 W/m² | - |
| 1777667323 | 18.89° C | 40% | 1009.5 hPa | 0 mm | - | 637 W/m² | - |
| 1777667020 | 18.89° C | 38% | 1009.6 hPa | 0 mm | - | 649 W/m² | - |
| 1777666717 | 18.89° C | 36% | 1009.5 hPa | 0 mm | - | 664 W/m² | - |
| 1777666414 | 18.89° C | 35% | 1009.7 hPa | 0 mm | - | 693 W/m² | - |
| 1777666110 | 18.89° C | 35% | 1009.8 hPa | 0 mm | - | 701 W/m² | - |
| 1777665807 | 18.89° C | 38% | 1009.9 hPa | 0 mm | - | 717 W/m² | - |
| 1777665505 | 18.89° C | 35% | 1009.8 hPa | 0 mm | - | 728 W/m² | - |
| 1777665201 | 18.33° C | 38% | 1010.2 hPa | 0 mm | - | 747 W/m² | - |
| 1777664897 | 18.89° C | 35% | 1010.1 hPa | 0 mm | - | 752 W/m² | - |
| 1777664593 | 18.89° C | 38% | 1010.1 hPa | 0 mm | - | 768 W/m² | - |
| 1777664290 | 18.89° C | 39% | 1010 hPa | 0 mm | - | 783 W/m² | - |
| 1777663989 | 18.89° C | 41% | 1010.5 hPa | 0 mm | - | 797 W/m² | - |
| 1777663686 | 18.89° C | 36% | 1010.3 hPa | 0 mm | - | 806 W/m² | - |
| 1777663382 | 18.33° C | 40% | 1010.5 hPa | 0 mm | - | 822 W/m² | - |
| 1777663079 | 18.33° C | 41% | 1010.6 hPa | 0 mm | - | 831 W/m² | - |
* Rain latest hour (hover to see other rain measurements)
** Current wind speed in m/s (hover to see current wind gust speed)